Regional Weather Roundup
Issued by NWS

Home | Current Version | Previous Version | Graphics & Text | Print | Product List | Glossary On
Versions: 1 2 3 4 5 6 7 8 9 10 11 12 13 14 15 16 17 18 19 20 21 22 23 24 25 26 27 28
000
ASUS45 KBOU 300910
RWRCO

WEATHER ROUNDUP FOR COLORADO
NATIONAL WEATHER SERVICE DENVER/BOULDER CO
300 AM MDT FRI SEP 30 2016

NOTE: "FAIR" INDICATES FEW OR NO CLOUDS BELOW 12000 FEET WITH NO
SIGNIFICANT WEATHER AND/OR OBSTRUCTIONS TO VISIBILITY.

COZ001>005-013-030-031-301000-
...NORTHWEST COLORADO...

CITY           SKY/WX    TMP DP  RH WIND       PRES   REMARKS
CRAIG          LGT RAIN  52  50  93 SE3       30.36F
HAYDEN         FAIR      52  46  82 CALM      30.38S
MEEKER         CLOUDY    54  52  93 CALM      30.37S
MOUNT WERNER   NOT AVBL
STEAMBOAT SPGS CLOUDY    50  48  94 CALM      30.38F
WALDEN           N/A     50  39  66 E6        30.43S
$$

COZ006>008-011-301000-
...WEST CENTRAL VALLEYS...

CITY           SKY/WX    TMP DP  RH WIND       PRES   REMARKS
GRAND JUNCTION CLOUDY    57  55  93 SE6       30.32F
MONTROSE       CLOUDY    55  53  93 S3        30.38F
EAGLE          CLOUDY    52  45  76 E7        30.40S
RIFLE          LGT RAIN  56  56 100 CALM      30.35S
DELTA          NOT AVBL
NUCLA          CLOUDY    54  52  94 CALM      30.41F
$$

COZ017>023-064>068-301000-
...SOUTHWEST COLORADO...

CITY           SKY/WX    TMP DP  RH WIND       PRES   REMARKS
DURANGO        CLOUDY    52  50  93 N5        30.41F
CORTEZ         CLOUDY    53  51  93 CALM      30.36F
PAGOSA SPRINGS CLOUDY    51  47  87 CALM      30.46F
TELLURIDE      CLOUDY    47  46  97 CALM      30.52F
WOLF CREEK PAS DRIZZLE   34  34 100 SW12      30.66F WCI  25
$$

COZ009-010-012-014-032>034-037-058>063-301000-
...CENTRAL COLORADO...

CITY           SKY/WX    TMP DP  RH WIND       PRES   REMARKS
ASPEN          CLOUDY    50  43  77 SE3       30.42F
BUENA VISTA    CLOUDY    51  33  51 W3        30.42S
COPPER MTN     CLOUDY    45  32  61 S7        30.62F
BERTHOUD PASS  CLOUDY    36  23  60 NW14      30.65F
COTTONWOOD PAS CLOUDY    54  32  43 CALM      30.51F
GUNNISON       FAIR      50  44  80 N3        30.43F
KREMMLING      CLOUDY    50  36  57 CALM      30.42S
LEADVILLE      CLOUDY    43  31  62 NE3       30.50F
MONARCH PASS   CLOUDY    37  34  87 SW10      30.73F
SALIDA         CLOUDY    56  37  47 CALM      30.47R
SUNLIGHT       RAIN      43  43 100 SW8       30.59S
WILKERSON PASS CLOUDY    43  32  65 SW9       30.61S
$$

COZ069>075-301000-
...SAN LUIS VALLEY/SANGRE DE CRISTO MOUNTAINS...

CITY           SKY/WX    TMP DP  RH WIND       PRES   REMARKS
ALAMOSA        FAIR      46  39  76 SE7       30.41F
LA VETA PASS   MOCLDY    45  36  70 MISG      30.52F
SAGUACHE       CLOUDY    46  36  66 S5        30.43F
$$

COZ035-036-038>040-301000-
...NORTHERN COLORADO FRONT RANGE...

CITY           SKY/WX    TMP DP  RH WIND       PRES   REMARKS
DENVER INTL AP FAIR      57  38  48 SW9       30.22S
DMNS CITY PARK   N/A     55  42  62 SE9       30.23S
AURORA         PTCLDY    58  39  49 SW5       30.24S
FRONT RANGE AP NOT AVBL
ERIE MUNI ARPT FAIR      50  40  66 SW5       30.22S
BOULDER MUN AP NOT AVBL
CENTENNIAL     FAIR      56  36  47 W7        30.26R
BROOMFIELD     FAIR      61  34  36 CALM      30.25S
FORT COLLINS   FAIR      54  41  62 N7        30.21S
LONGMONT       FAIR      52  40  65 CALM      30.22S
$$

COZ041-046-047-076>085-087-088-301000-
...PIKES PEAK/PALMER DIVIDE AND SOUTHERN FOOTHILLS...

CITY           SKY/WX    TMP DP  RH WIND       PRES   REMARKS
COLO. SPRINGS  MOCLDY    52  39  61 NE7       30.29F
A. F. ACADEMY  CLOUDY    47  36  64 N8        30.29F
SCHRIEVER AFB  NOT AVBL
ELLICOTT       NOT AVBL
FALCON         FAIR      51  38  62 NW3       30.32F
FORT CARSON    FAIR      51  37  58 N5        30.25F
LIMON          FAIR      41  37  86 CALM      30.26F
MONUMENT HILL  MOCLDY    54  32  43 SW8       30.33S
TRINIDAD       MOCLDY    61  34  36 N3        30.25F
$$

COZ042>045-048>051-090-091-301000-
...NORTHEAST COLORADO...

CITY           SKY/WX    TMP DP  RH WIND       PRES   REMARKS
GREELEY ARPT   FAIR     N/A N/A N/A N8        30.20S
AKRON          FAIR      50  40  68 SE15      30.21F
BURLINGTON     FAIR      49  38  65 SE14      30.24F
WRAY           NOT AVBL
STERLING       FAIR      50  41  71 CALM      30.21S
HOLYOKE        NOT AVBL
FORT MORGAN    FAIR      46  39  75 E7        30.19F
$$

COZ086-089-092>099-301000-
...SOUTHEAST COLORADO...

CITY           SKY/WX    TMP DP  RH WIND       PRES   REMARKS
PUEBLO         FAIR      57  40  52 N5        30.20S
LA JUNTA       FAIR      55  43  63 E6        30.17F
LAMAR          FAIR      48  40  73 E9        30.18F
SPRINGFIELD      N/A     50  45  83 S14       30.23F
$$




USA.gov is the U.S. government's official web portal to all federal, state and local government web resources and services.